{"data":{"norad_id":31598,"epoch":"2026-09-19T23:09:14.464800Z","epoch_age_seconds":60915,"freshness":"FRESH","line1":"1 31598U 07023A   26262.96475075  .00001793  00000+0  15913-3 0  9990","line2":"2 31598  97.8839  95.6446 0001800  82.8795 277.2631 14.97465005 43976","mean_motion":14.97465005,"eccentricity":0.00018,"inclination_deg":97.8839,"raan_deg":95.6446,"arg_perigee_deg":82.8795,"mean_anomaly_deg":277.2631,"bstar":0.00015913,"rev_number":4397,"period_min":96.162514328674,"perigee_km":573.48058772588,"apogee_km":575.98362060338,"semimajor_km":6952.8691041646,"source":"CELESTRAK","updated_at":"2026-09-20T09:00:33.886383Z"}}